Time,TemperatureF,DewpointF,PressureIn,WindDirection,WindDirectionDegrees,WindSpeedMPH,WindSpeedGustMPH,Humidity,HourlyPrecipIn,Conditions,Clouds,dailyrainin,SolarRadiationWatts/m^2,SoftwareType,DateUTC
2013-01-07 00:13:00,35.9,32.0,30.06,WSW,239,11.0,-999.0,87,-99.99,,,0.00,0,weatherlink.com 1.10,2013-01-07 05:13:00,
2013-01-07 00:27:00,36.0,33.0,30.07,WSW,240,9.0,-999.0,87,-99.99,,,0.00,0,weatherlink.com 1.10,2013-01-07 05:27:00,
2013-01-07 00:42:00,36.1,32.0,30.08,West,275,7.0,-999.0,86,-99.99,,,0.00,0,weatherlink.com 1.10,2013-01-07 05:42:00,
2013-01-07 00:57:00,35.5,32.0,30.09,WNW,294,8.0,-999.0,87,-99.99,,,0.00,0,weatherlink.com 1.10,2013-01-07 05:57:00,
2013-01-07 01:12:00,34.1,31.0,30.10,NW,309,8.0,-999.0,87,-99.99,,,0.00,0,weatherlink.com 1.10,2013-01-07 06:12:00,
2013-01-07 01:27:00,33.3,30.0,30.11,NNW,338,8.0,-999.0,87,-99.99,,,0.00,0,weatherlink.com 1.10,2013-01-07 06:27:00,
2013-01-07 01:42:00,32.6,29.0,30.13,NNW,337,11.0,-999.0,86,-99.99,,,0.00,0,weatherlink.com 1.10,2013-01-07 06:42:00,
2013-01-07 01:57:00,32.3,29.0,30.15,NW,309,9.0,-999.0,86,-99.99,,,0.00,0,weatherlink.com 1.10,2013-01-07 06:57:00,
2013-01-07 02:12:00,32.1,28.0,30.16,NNW,337,10.0,-999.0,86,-99.99,,,0.00,0,weatherlink.com 1.10,2013-01-07 07:12:00,
2013-01-07 02:27:00,31.4,27.0,30.17,NW,311,9.0,-999.0,85,-99.99,,,0.00,0,weatherlink.com 1.10,2013-01-07 07:27:00,
2013-01-07 02:42:00,30.7,27.0,30.19,NNW,332,13.0,-999.0,86,-99.99,,,0.00,0,weatherlink.com 1.10,2013-01-07 07:42:00,
2013-01-07 02:57:00,30.1,26.0,30.19,WNW,302,6.0,-999.0,86,-99.99,,,0.00,0,weatherlink.com 1.10,2013-01-07 07:57:00,
2013-01-07 03:13:00,29.5,26.0,30.21,NW,318,4.0,-999.0,86,-99.99,,,0.00,0,weatherlink.com 1.10,2013-01-07 08:13:00,
2013-01-07 03:28:00,29.1,26.0,30.21,WNW,292,11.0,-999.0,87,-99.99,,,0.00,0,weatherlink.com 1.10,2013-01-07 08:28:00,
2013-01-07 03:43:00,28.9,26.0,30.23,West,279,13.0,-999.0,87,-99.99,,,0.00,0,weatherlink.com 1.10,2013-01-07 08:43:00,
2013-01-07 03:58:00,28.5,25.0,30.23,WNW,288,8.0,-999.0,87,-99.99,,,0.00,0,weatherlink.com 1.10,2013-01-07 08:58:00,
2013-01-07 04:13:00,28.4,25.0,30.24,NW,325,8.0,-999.0,87,-99.99,,,0.00,0,weatherlink.com 1.10,2013-01-07 09:13:00,
2013-01-07 04:28:00,28.1,25.0,30.24,WNW,300,7.0,-999.0,87,-99.99,,,0.00,0,weatherlink.com 1.10,2013-01-07 09:28:00,
2013-01-07 04:43:00,27.9,25.0,30.25,NW,309,6.0,-999.0,87,-99.99,,,0.00,0,weatherlink.com 1.10,2013-01-07 09:43:00,
2013-01-07 04:58:00,27.6,24.0,30.26,WNW,297,11.0,-999.0,87,-99.99,,,0.00,0,weatherlink.com 1.10,2013-01-07 09:58:00,
2013-01-07 05:13:00,27.4,24.0,30.27,WNW,298,10.0,-999.0,87,-99.99,,,0.00,0,weatherlink.com 1.10,2013-01-07 10:13:00,
2013-01-07 05:28:00,27.1,24.0,30.28,NW,316,11.0,-999.0,86,-99.99,,,0.00,0,weatherlink.com 1.10,2013-01-07 10:28:00,
2013-01-07 05:43:00,26.9,23.0,30.29,WNW,288,9.0,-999.0,86,-99.99,,,0.00,0,weatherlink.com 1.10,2013-01-07 10:43:00,
2013-01-07 05:58:00,-999.0,-99.9,30.30,North,-999,-999.0,-999.0,-999,-99.99,,,0.00,,weatherlink.com 1.10,2013-01-07 10:58:00,
2013-01-07 06:13:00,-999.0,-99.9,30.30,North,-999,-999.0,-999.0,-999,-99.99,,,0.00,,weatherlink.com 1.10,2013-01-07 11:13:00,
2013-01-07 06:28:00,-999.0,-99.9,30.31,North,-999,-999.0,-999.0,-999,-99.99,,,0.00,,weatherlink.com 1.10,2013-01-07 11:28:00,
2013-01-07 06:43:00,-999.0,-99.9,30.32,North,-999,-999.0,-999.0,-999,-99.99,,,0.00,,weatherlink.com 1.10,2013-01-07 11:43:00,
2013-01-07 06:58:00,-999.0,-99.9,30.33,North,-999,-999.0,-999.0,-999,-99.99,,,0.00,,weatherlink.com 1.10,2013-01-07 11:58:00,
2013-01-07 07:13:00,-999.0,-99.9,30.34,North,-999,-999.0,-999.0,-999,-99.99,,,0.00,,weatherlink.com 1.10,2013-01-07 12:13:00,
2013-01-07 07:28:00,-999.0,-99.9,30.34,North,-999,-999.0,-999.0,-999,-99.99,,,0.00,,weatherlink.com 1.10,2013-01-07 12:28:00,
2013-01-07 07:44:00,-999.0,-99.9,30.35,North,-999,-999.0,-999.0,-999,-99.99,,,0.00,,weatherlink.com 1.10,2013-01-07 12:44:00,
2013-01-07 07:59:00,25.5,22.0,30.36,WNW,296,7.0,-999.0,86,-99.99,,,0.00,0,weatherlink.com 1.10,2013-01-07 12:59:00,
2013-01-07 08:14:00,25.4,22.0,30.37,NW,313,7.0,-999.0,85,-99.99,,,0.00,0,weatherlink.com 1.10,2013-01-07 13:14:00,
2013-01-07 08:29:00,25.4,22.0,30.37,WNW,296,8.0,-999.0,85,-99.99,,,0.00,0,weatherlink.com 1.10,2013-01-07 13:29:00,
2013-01-07 08:44:00,25.4,22.0,30.37,NW,304,7.0,-999.0,86,-99.99,,,0.00,0,weatherlink.com 1.10,2013-01-07 13:44:00,
2013-01-07 08:59:00,25.6,22.0,30.38,NW,306,5.0,-999.0,86,-99.99,,,0.00,0,weatherlink.com 1.10,2013-01-07 13:59:00,
2013-01-07 09:14:00,25.8,22.0,30.39,WNW,291,5.0,-999.0,85,-99.99,,,0.00,0,weatherlink.com 1.10,2013-01-07 14:14:00,
2013-01-07 09:29:00,26.0,22.0,30.39,WNW,293,4.0,-999.0,85,-99.99,,,0.00,7,weatherlink.com 1.10,2013-01-07 14:29:00,
2013-01-07 09:44:00,26.3,22.0,30.40,WNW,298,6.0,-999.0,85,-99.99,,,0.00,19,weatherlink.com 1.10,2013-01-07 14:44:00,
2013-01-07 09:59:00,26.4,23.0,30.40,NW,311,4.0,-999.0,85,-99.99,,,0.00,26,weatherlink.com 1.10,2013-01-07 14:59:00,
2013-01-07 10:14:00,26.7,23.0,30.41,West,272,4.0,-999.0,84,-99.99,,,0.00,33,weatherlink.com 1.10,2013-01-07 15:14:00,
2013-01-07 10:29:00,27.0,23.0,30.41,West,265,5.0,-999.0,83,-99.99,,,0.00,40,weatherlink.com 1.10,2013-01-07 15:29:00,
2013-01-07 10:44:00,27.4,23.0,30.40,WNW,290,6.0,-999.0,83,-99.99,,,0.00,40,weatherlink.com 1.10,2013-01-07 15:44:00,
2013-01-07 10:59:00,27.6,23.0,30.41,West,264,4.0,-999.0,82,-99.99,,,0.00,32,weatherlink.com 1.10,2013-01-07 15:59:00,
2013-01-07 11:14:00,28.0,23.0,30.40,West,262,6.0,-999.0,81,-99.99,,,0.00,28,weatherlink.com 1.10,2013-01-07 16:14:00,
2013-01-07 11:29:00,27.8,22.0,30.40,West,274,5.0,-999.0,80,-99.99,,,0.00,30,weatherlink.com 1.10,2013-01-07 16:29:00,
2013-01-07 11:44:00,28.2,22.0,30.40,West,261,5.0,-999.0,79,-99.99,,,0.00,90,weatherlink.com 1.10,2013-01-07 16:44:00,
2013-01-07 11:59:00,28.4,22.0,30.39,West,272,3.0,-999.0,78,-99.99,,,0.00,63,weatherlink.com 1.10,2013-01-07 16:59:00,
2013-01-07 12:14:00,28.7,23.0,30.39,South,178,3.0,-999.0,78,-99.99,,,0.00,58,weatherlink.com 1.10,2013-01-07 17:14:00,
2013-01-07 12:29:00,29.0,23.0,30.39,WSW,257,10.0,-999.0,77,-99.99,,,0.00,44,weatherlink.com 1.10,2013-01-07 17:29:00,
2013-01-07 12:44:00,29.1,23.0,30.38,SSW,201,7.0,-999.0,78,-99.99,,,0.00,51,weatherlink.com 1.10,2013-01-07 17:44:00,
2013-01-07 12:59:00,29.6,23.0,30.38,SW,219,4.0,-999.0,76,-99.99,,,0.00,141,weatherlink.com 1.10,2013-01-07 17:59:00,
2013-01-07 13:14:00,30.3,23.0,30.38,South,169,1.0,-999.0,75,-99.99,,,0.00,109,weatherlink.com 1.10,2013-01-07 18:14:00,
2013-01-07 13:29:00,30.4,23.0,30.38,West,265,5.0,-999.0,73,-99.99,,,0.00,130,weatherlink.com 1.10,2013-01-07 18:29:00,
2013-01-07 13:44:00,31.0,23.0,30.38,WSW,258,1.0,-999.0,72,-99.99,,,0.00,121,weatherlink.com 1.10,2013-01-07 18:44:00,
2013-01-07 13:59:00,31.3,23.0,30.37,West,281,1.0,-999.0,72,-99.99,,,0.00,104,weatherlink.com 1.10,2013-01-07 18:59:00,
2013-01-07 14:14:00,31.6,24.0,30.37,SW,228,0.0,-999.0,72,-99.99,,,0.00,98,weatherlink.com 1.10,2013-01-07 19:14:00,
2013-01-07 14:29:00,32.0,24.0,30.37,WSW,246,4.0,-999.0,71,-99.99,,,0.00,69,weatherlink.com 1.10,2013-01-07 19:29:00,
2013-01-07 14:44:00,32.2,24.0,30.37,SW,215,5.0,-999.0,71,-99.99,,,0.00,53,weatherlink.com 1.10,2013-01-07 19:44:00,
2013-01-07 14:59:00,32.6,24.0,30.36,SSW,196,5.0,-999.0,70,-99.99,,,0.00,40,weatherlink.com 1.10,2013-01-07 19:59:00,
2013-01-07 15:14:00,32.8,24.0,30.36,SSW,203,5.0,-999.0,70,-99.99,,,0.00,16,weatherlink.com 1.10,2013-01-07 20:14:00,
2013-01-07 15:29:00,32.9,24.0,30.35,SW,226,3.0,-999.0,69,-99.99,,,0.00,5,weatherlink.com 1.10,2013-01-07 20:29:00,
2013-01-07 15:44:00,32.7,23.0,30.35,West,271,4.0,-999.0,68,-99.99,,,0.00,39,weatherlink.com 1.10,2013-01-07 20:44:00,
2013-01-07 15:59:00,32.6,23.0,30.35,SW,231,1.0,-999.0,68,-99.99,,,0.00,0,weatherlink.com 1.10,2013-01-07 20:59:00,
2013-01-07 16:14:00,32.2,23.0,30.34,West,275,1.0,-999.0,69,-99.99,,,0.00,0,weatherlink.com 1.10,2013-01-07 21:14:00,
2013-01-07 16:29:00,32.0,23.0,30.34,SSW,192,1.0,-999.0,69,-99.99,,,0.00,0,weatherlink.com 1.10,2013-01-07 21:29:00,
2013-01-07 16:44:00,31.5,23.0,30.34,South,180,0.0,-999.0,70,-99.99,,,0.00,0,weatherlink.com 1.10,2013-01-07 21:44:00,
2013-01-07 16:59:00,30.6,23.0,30.33,SSE,163,5.0,-999.0,72,-99.99,,,0.00,0,weatherlink.com 1.10,2013-01-07 21:59:00,
2013-01-07 17:14:00,29.5,23.0,30.33,SE,129,6.0,-999.0,76,-99.99,,,0.00,0,weatherlink.com 1.10,2013-01-07 22:14:00,
2013-01-07 17:29:00,28.7,23.0,30.31,SE,124,8.0,-999.0,78,-99.99,,,0.00,0,weatherlink.com 1.10,2013-01-07 22:29:00,
2013-01-07 17:44:00,28.2,22.0,30.31,ESE,121,7.0,-999.0,79,-99.99,,,0.00,0,weatherlink.com 1.10,2013-01-07 22:44:00,
2013-01-07 17:59:00,27.8,22.0,30.30,SE,128,5.0,-999.0,80,-99.99,,,0.00,0,weatherlink.com 1.10,2013-01-07 22:59:00,
2013-01-07 18:14:00,27.4,22.0,30.30,SE,128,4.0,-999.0,81,-99.99,,,0.00,0,weatherlink.com 1.10,2013-01-07 23:14:00,
2013-01-07 18:29:00,26.8,22.0,30.30,SE,128,4.0,-999.0,82,-99.99,,,0.00,0,weatherlink.com 1.10,2013-01-07 23:29:00,
2013-01-07 18:44:00,26.1,21.0,30.29,ESE,120,4.0,-999.0,82,-99.99,,,0.00,0,weatherlink.com 1.10,2013-01-07 23:44:00,
2013-01-07 18:59:00,25.7,21.0,30.29,SE,124,4.0,-999.0,83,-99.99,,,0.00,0,weatherlink.com 1.10,2013-01-07 23:59:00,
2013-01-07 19:14:00,25.6,21.0,30.28,SE,124,2.0,-999.0,84,-99.99,,,0.00,0,weatherlink.com 1.10,2013-01-08 00:14:00,
2013-01-07 19:29:00,25.5,21.0,30.27,SE,124,1.0,-999.0,84,-99.99,,,0.00,0,weatherlink.com 1.10,2013-01-08 00:29:00,
2013-01-07 19:44:00,24.9,20.0,30.27,SE,124,1.0,-999.0,83,-99.99,,,0.00,0,weatherlink.com 1.10,2013-01-08 00:44:00,
2013-01-07 19:59:00,24.6,21.0,30.26,SE,125,4.0,-999.0,86,-99.99,,,0.00,0,weatherlink.com 1.10,2013-01-08 00:59:00,
2013-01-07 20:14:00,25.3,22.0,30.26,SE,127,4.0,-999.0,86,-99.99,,,0.00,0,weatherlink.com 1.10,2013-01-08 01:14:00,
2013-01-07 20:29:00,25.3,21.0,30.26,SE,125,1.0,-999.0,84,-99.99,,,0.00,0,weatherlink.com 1.10,2013-01-08 01:29:00,
2013-01-07 20:44:00,24.8,21.0,30.25,SE,127,1.0,-999.0,85,-99.99,,,0.00,0,weatherlink.com 1.10,2013-01-08 01:44:00,
2013-01-07 20:59:00,24.5,20.0,30.25,SE,127,2.0,-999.0,84,-99.99,,,0.00,0,weatherlink.com 1.10,2013-01-08 01:59:00,
2013-01-07 21:14:00,23.4,20.0,30.25,ESE,116,1.0,-999.0,85,-99.99,,,0.00,0,weatherlink.com 1.10,2013-01-08 02:14:00,
2013-01-07 21:29:00,22.9,19.0,30.25,ESE,116,0.0,-999.0,86,-99.99,,,0.00,0,weatherlink.com 1.10,2013-01-08 02:29:00,
2013-01-07 21:45:00,22.2,19.0,30.25,ESE,116,0.0,-999.0,86,-99.99,,,0.00,0,weatherlink.com 1.10,2013-01-08 02:45:00,
2013-01-07 22:00:00,21.8,18.0,30.25,ESE,116,0.0,-999.0,86,-99.99,,,0.00,0,weatherlink.com 1.10,2013-01-08 03:00:00,
2013-01-07 22:15:00,21.2,18.0,30.24,ESE,116,1.0,-999.0,87,-99.99,,,0.00,0,weatherlink.com 1.10,2013-01-08 03:15:00,
2013-01-07 22:30:00,22.4,19.0,30.24,SE,140,1.0,-999.0,88,-99.99,,,0.00,0,weatherlink.com 1.10,2013-01-08 03:30:00,
2013-01-07 22:45:00,23.8,21.0,30.24,SE,125,4.0,-999.0,87,-99.99,,,0.00,0,weatherlink.com 1.10,2013-01-08 03:45:00,
2013-01-07 23:00:00,26.1,22.0,30.24,SE,130,11.0,-999.0,85,-99.99,,,0.00,0,weatherlink.com 1.10,2013-01-08 04:00:00,
2013-01-07 23:15:00,28.4,23.0,30.23,SSE,152,12.0,-999.0,79,-99.99,,,0.00,0,weatherlink.com 1.10,2013-01-08 04:15:00,
2013-01-07 23:30:00,28.9,23.0,30.22,SE,145,10.0,-999.0,77,-99.99,,,0.00,0,weatherlink.com 1.10,2013-01-08 04:30:00,
2013-01-07 23:45:00,28.9,22.0,30.22,SE,126,9.0,-999.0,76,-99.99,,,0.00,0,weatherlink.com 1.10,2013-01-08 04:45:00,